Date String (YYYY-MM-DD hh:mm:ss) UTC,Instrument flags,absolute air pressure of the measurement (hPa),sample flow rate (lpm),inlet stack bypass flow (lpm),air temperature of the measurement (°C),ambient temperature measured by the external sensor (°C),aerosol sample conditioner tube jacket temperature (°C),OPC LED temperature (°C),internal box temperature (°C),relative humidity of the measurement (%),span deviation,mass concentration of particles derived from Lorenz-Mie calculation of OPC scattering (μg/m³),mass concentration of particles derived from Lorenz-Mie calculation of OPC scattering (μg/m³),mass concentration of particles derived from Lorenz-Mie calculation of OPC scattering (μg/m³)
DateTimeUTC,F1_M11,P_M11,Q1_M11,Q2_M11,T1_M11,T2_M11,T3_M11,T4_M11,T5_M11,U1_M11,ZSPAN_M11,X2_M11,X0_M11,X1_M11
2023-06-26 17:00:00,SystemResetWarning,0830.4,4.99,000.00,029.7,027.7,000.0,037.9,031.0,34.4,0001.8,0006.42,0015.16,0005.26
2023-06-26 17:01:00,SystemResetWarning,0830.4,5.01,000.00,029.8,027.9,000.0,038.0,031.1,33.4,0002.4,0006.38,0014.78,0005.23
2023-06-26 17:02:00,SystemResetWarning,0830.4,5.01,000.00,029.8,027.7,000.0,038.0,031.2,34.3,0002.6,0006.38,0013.55,0005.21
2023-06-26 17:03:00,SystemResetWarning,0830.5,4.98,000.00,029.8,026.0,000.0,038.0,031.1,33.2,0002.8,0006.37,0012.47,0005.19
2023-06-26 17:04:00,SystemResetWarning,0830.5,5.00,000.00,029.8,024.8,000.0,037.9,031.0,32.5,0003.1,0006.27,0012.70,0005.16
2023-06-26 17:05:00,SystemResetWarning,0830.5,5.02,000.00,029.8,024.8,000.0,037.9,030.9,32.7,0002.9,0006.19,0012.49,0005.12
2023-06-26 17:06:00,SystemResetWarning,0830.5,5.00,000.00,029.6,025.2,000.0,037.9,030.6,32.7,0003.3,0006.18,0012.54,0005.09
2023-06-26 17:07:00,SystemResetWarning,0830.4,5.00,000.00,029.6,025.6,000.0,038.0,030.6,33.0,0002.6,0006.04,0012.23,0005.06
2023-06-26 17:08:00,SystemResetWarning,0830.4,5.00,000.00,029.6,026.1,000.0,038.0,030.6,33.2,0000.0,0006.03,0012.46,0005.04
2023-06-26 17:09:00,SystemResetWarning,0830.4,4.99,000.00,029.6,026.5,000.0,038.0,030.7,32.7,0000.0,0006.01,0012.94,0005.02
2023-06-26 17:10:00,SystemResetWarning,0830.4,5.00,000.00,029.6,026.8,000.0,038.0,030.7,31.8,0000.0,0005.98,0012.63,0005.01
2023-06-26 17:11:00,SystemResetWarning,0830.4,5.00,000.00,029.6,027.1,000.0,038.0,030.8,32.2,0000.0,0006.06,0013.09,0005.01
2023-06-26 17:12:00,SystemResetWarning,0830.5,5.00,000.00,029.6,027.4,000.0,038.0,030.9,32.1,0000.0,0006.11,0014.12,0005.03
2023-06-26 17:13:00,SystemResetWarning,0830.4,4.99,000.00,029.6,027.6,000.0,038.0,030.9,33.0,0000.0,0006.08,0014.27,0005.03
2023-06-26 17:14:00,SystemResetWarning,0830.4,4.99,000.00,029.6,027.7,000.0,038.0,031.0,32.4,0000.0,0006.08,0014.59,0005.03
2023-06-26 17:15:00,SystemResetWarning,0830.4,5.00,000.00,029.7,027.9,000.0,038.1,031.0,31.2,0000.0,0006.12,0014.02,0005.02
2023-06-26 17:16:00,SystemResetWarning,0830.4,5.00,000.00,029.7,027.5,000.0,038.1,031.2,31.0,0000.0,0006.11,0014.33,0005.02
2023-06-26 17:17:00,SystemResetWarning,0830.4,5.00,000.00,029.7,025.6,000.0,038.0,031.1,31.8,0000.0,0006.11,0014.47,0005.01
2023-06-26 17:18:00,SystemResetWarning,0830.5,5.01,000.00,029.7,024.6,000.0,037.9,031.1,31.5,0000.0,0006.15,0014.79,0005.01
2023-06-26 17:19:00,SystemResetWarning,0830.4,5.01,000.00,029.6,024.7,000.0,037.9,030.8,32.8,0001.5,0006.14,0015.20,0005.00
2023-06-26 17:20:00,SystemResetWarning,0830.4,5.00,000.00,029.5,025.1,000.0,037.9,030.5,33.3,0002.8,0006.10,0015.16,0005.00
2023-06-26 17:21:00,SystemResetWarning,0830.3,5.00,000.00,029.4,025.5,000.0,037.9,030.5,33.5,0000.5,0006.10,0015.52,0004.98
2023-06-26 17:22:00,SystemResetWarning,0830.3,4.99,000.00,029.4,026.0,000.0,037.9,030.6,32.7,0000.0,0006.01,0016.78,0004.96
2023-06-26 17:23:00,SystemResetWarning,0830.3,4.99,000.00,029.4,026.4,000.0,037.9,030.6,33.9,0001.2,0005.97,0016.46,0004.93
2023-06-26 17:24:00,SystemResetWarning,0830.3,4.99,000.00,029.4,026.8,000.0,037.9,030.7,33.4,0003.1,0005.96,0017.70,0004.92
2023-06-26 17:25:00,SystemResetWarning,0830.3,5.01,000.00,029.4,027.1,000.0,037.9,030.8,33.6,0003.4,0005.96,0017.29,0004.93
2023-06-26 17:26:00,SystemResetWarning,0830.2,4.99,000.00,029.4,027.3,000.0,037.9,030.8,34.5,0003.9,0005.93,0017.48,0004.94
2023-06-26 17:27:00,SystemResetWarning,0830.3,5.00,000.00,029.5,027.5,000.0,037.9,030.9,33.9,0003.8,0005.96,0017.65,0004.97
2023-06-26 17:28:00,SystemResetWarning,0830.3,5.01,000.00,029.5,027.7,000.0,038.0,031.0,33.3,0003.7,0005.98,0017.50,0005.00
2023-06-26 17:29:00,SystemResetWarning,0830.3,5.01,000.00,029.6,027.9,000.0,038.0,031.0,33.0,0001.9,0005.97,0017.25,0005.02
2023-06-26 17:30:00,SystemResetWarning,0830.2,4.98,000.00,029.6,027.3,000.0,038.0,031.1,33.9,0003.8,0006.00,0016.46,0005.03
2023-06-26 17:31:00,SystemResetWarning,0830.3,5.00,000.00,029.6,025.4,000.0,037.9,031.1,34.0,0000.0,0006.06,0016.05,0005.05
2023-06-26 17:32:00,SystemResetWarning,0830.2,5.01,000.00,029.6,024.6,000.0,037.8,031.0,34.4,0000.0,0006.09,0017.00,0005.08
2023-06-26 17:33:00,SystemResetWarning,0830.2,4.99,000.00,029.5,024.7,000.0,037.8,030.8,36.2,0001.4,0006.16,0016.16,0005.12
2023-06-26 17:34:00,SystemResetWarning,0830.2,5.02,000.00,029.6,025.1,000.0,037.8,030.6,35.5,0000.1,0006.18,0016.15,0005.15
2023-06-26 17:35:00,SystemResetWarning,0830.3,4.99,000.00,029.9,025.6,000.0,037.9,030.8,35.6,0000.0,0006.17,0014.64,0005.17
2023-06-26 17:36:00,SystemResetWarning,0830.3,5.01,000.00,030.2,026.1,000.0,037.9,030.9,34.3,0000.0,0006.16,0014.49,0005.20
2023-06-26 17:37:00,SystemResetWarning,0830.3,4.97,000.00,030.5,026.5,000.0,037.9,031.0,35.1,0000.0,0006.19,0014.44,0005.22
2023-06-26 17:38:00,SystemResetWarning,0830.3,5.03,000.00,030.8,026.8,000.0,038.0,031.1,34.6,0000.0,0006.22,0014.49,0005.24
2023-06-26 17:39:00,SystemResetWarning,0830.3,4.97,000.00,030.9,027.1,000.0,038.1,031.2,32.6,0000.0,0006.27,0014.63,0005.25
2023-06-26 17:40:00,SystemResetWarning,0830.3,5.01,000.00,031.1,027.4,000.0,038.3,031.2,33.2,0000.0,0006.32,0014.92,0005.26
2023-06-26 17:41:00,SystemResetWarning,0830.3,5.00,000.00,031.1,027.6,000.0,038.4,031.3,33.9,0000.0,0006.35,0015.41,0005.28
2023-06-26 17:42:00,SystemResetWarning,0830.3,4.99,000.00,031.2,027.8,000.0,038.5,031.3,32.9,0000.0,0006.32,0015.48,0005.30
2023-06-26 17:43:00,SystemResetWarning,0830.4,5.00,000.00,031.3,027.7,000.0,038.6,031.4,32.3,0000.0,0006.29,0014.74,0005.28
2023-06-26 17:44:00,SystemResetWarning,0830.4,5.00,000.00,031.3,026.0,000.0,038.7,031.4,31.8,0000.0,0006.28,0013.66,0005.28
2023-06-26 17:45:00,SystemResetWarning,0830.4,5.00,000.00,031.3,024.8,000.0,038.7,031.4,31.4,0000.0,0006.24,0013.91,0005.28
2023-06-26 17:46:00,SystemResetWarning,0830.4,5.01,000.00,031.3,024.7,000.0,038.7,031.2,31.2,0000.0,0006.32,0014.81,0005.28
2023-06-26 17:47:00,SystemResetWarning,0830.4,5.01,000.00,031.1,025.0,000.0,038.8,030.9,31.2,0000.0,0006.38,0016.10,0005.27
2023-06-26 17:48:00,SystemResetWarning,0830.4,5.00,000.00,031.0,025.5,000.0,038.8,030.9,32.2,0000.0,0006.37,0016.56,0005.25
2023-06-26 17:49:00,SystemResetWarning,0830.4,5.00,000.00,031.0,026.0,000.0,038.8,030.9,33.6,0000.0,0006.36,0017.11,0005.24
2023-06-26 17:50:00,SystemResetWarning,0830.4,5.00,000.00,030.9,026.4,000.0,038.9,031.0,31.8,0000.0,0006.36,0019.33,0005.23
2023-06-26 17:51:00,SystemResetWarning,0830.3,5.00,000.00,030.9,026.8,000.0,038.9,031.0,32.0,0000.0,0006.34,0019.99,0005.23
2023-06-26 17:52:00,SystemResetWarning,0830.3,4.99,000.00,030.9,027.1,000.0,038.9,031.1,31.8,0000.0,0006.27,0019.49,0005.22
2023-06-26 17:53:00,SystemResetWarning,0830.3,4.98,000.00,030.8,027.4,000.0,038.9,031.2,31.8,0000.0,0006.28,0019.61,0005.22
2023-06-26 17:54:00,SystemResetWarning,0830.3,5.01,000.00,030.8,027.6,000.0,038.9,031.2,32.6,0000.0,0006.31,0019.34,0005.24
2023-06-26 17:55:00,SystemResetWarning,0830.3,5.00,000.00,030.8,027.7,000.0,038.9,031.3,33.5,0000.0,0006.35,0019.54,0005.24
2023-06-26 17:56:00,SystemResetWarning,0830.3,4.97,000.00,030.9,026.4,000.0,038.9,031.4,34.8,0000.0,0006.35,0018.66,0005.24
2023-06-26 17:57:00,SystemResetWarning,0830.3,5.05,000.00,030.9,024.9,000.0,038.8,031.4,34.0,0000.0,0006.36,0017.38,0005.26
2023-06-26 17:58:00,SystemResetWarning,0830.3,4.97,000.00,031.0,024.6,000.0,038.8,031.4,32.4,0000.0,0006.31,0016.34,0005.27
2023-06-26 17:59:00,SystemResetWarning,0830.3,5.00,000.00,030.9,024.9,000.0,038.8,031.1,33.1,0000.0,0006.30,0015.79,0005.26
